RH
22 24 23 22 26 27 34 48 60 78 89 79 76 63 70 65 67 48 44 66 99 63 70 83 100 100 83 65 76 69 80 65 54 87 81 66 48 39 38 30 30 40 25 8 6
25 23 23 21 18 19 20 28 40 63 76 90 80 80 77 86 90 86 74 89 81 74 79 100 98 66 68 72 85 78 76 70 73 77 64 51 45 43 30 30 34 28 13 6 4
44 36 28 26 21 18 17 18 24 32 70 62 97 79 96 96 94 94 96 100 100 73 93 96 71 76 91 89 91 96 91 88 87 73 62 42 50 38 39 32 28 19 7 6 4
63 58 43 44 38 23 21 18 18 23 28 73 88 85 91 100 100 100 100 100 83 73 80 93 99 93 100 100 100 100 100 98 88 74 50 46 40 35 38 28 21 10 8 5 3
62 60 48 51 63 44 32 22 20 21 28 98 83 100 89 96 98 100 100 100 84 69 81 98 98 100 100 96 99 100 96 87 83 54 46 43 43 41 43 26 20 7 7 4 2
53 52 54 47 49 49 37 30 27 26 23 38 96 92 99 100 98 100 100 100 99 95 92 100 89 100 82 100 99 97 99 80 57 50 50 53 52 60 31 24 13 8 6 3 2
39 40 38 41 42 36 39 32 27 24 21 25 61 100 100 100 100 100 100 100 100 99 100 98 100 75 99 100 100 100 85 72 60 54 52 52 71 51 33 22 11 8 4 2 2
34 36 30 34 32 31 30 29 27 28 28 24 47 75 100 100 97 100 100 100 100 91 100 100 95 89 100 99 98 100 93 61 64 58 50 66 73 40 32 18 11 6 3 3 2
43 38 39 34 34 26 23 26 24 25 33 27 37 89 100 100 79 90 93 89 94 84 97 100 72 86 100 97 100 90 94 59 80 65 85 76 62 45 24 15 9 5 3 3 2
76 62 48 37 34 28 23 22 22 24 30 36 61 100 100 100 100 99 96 99 90 95 100 71 75 100 91 97 88 86 94 79 76 84 86 74 51 28 21 13 7 4 3 3 2
88 59 64 41 33 29 25 23 32 32 32 40 62 99 100 100 100 97 100 100 100 100 100 72 88 78 78 78 87 93 81 82 92 86 88 81 40 27 18 11 8 3 3 3 2
89 69 66 37 33 27 24 26 31 31 34 56 93 100 100 100 100 82 100 100 100 96 90 100 87 75 66 71 98 82 76 88 99 92 70 60 36 24 17 9 6 4 3 3 3
92 62 79 27 40 17 17 19 33 28 38 65 77 100 100 100 100 100 97 100 99 99 100 86 71 85 90 73 90 68 99 95 100 83 62 53 42 21 15 8 5 4 3 3 3
83 72 74 20 17 13 13 18 28 22 41 67 70 100 100 100 99 100 88 100 100 100 80 77 70 87 100 88 95 77 100 100 100 80 60 61 30 23 16 8 5 4 4 3 3
85 56 63 13 11 14 13 20 24 29 59 67 82 100 100 100 100 95 100 100 100 100 100 87 69 99 100 98 84 99 100 100 79 78 76 50 24 23 15 7 5 4 5 3 4
62 49 30 10 11 13 12 17 25 51 60 59 92 100 100 100 100 100 100 100 100 100 73 96 80 100 100 96 100 100 100 100 75 91 70 35 23 24 15 9 4 5 5 4 4
40 31 11 10 11 11 12 14 45 57 56 57 80 100 100 100 100 100 100 100 98 85 96 98 99 100 100 100 100 100 100 98 84 77 55 30 26 23 14 9 4 5 5 5 4
15 11 10 10 10 10 11 19 55 50 46 51 64 100 100 100 100 100 100 100 96 100 87 100 100 100 100 100 100 100 100 97 85 75 47 27 26 25 14 9 5 5 5 5 5
11 10 10 10 9 10 12 25 50 36 41 65 78 99 100 100 100 100 100 100 100 99 100 100 100 100 100 100 100 100 100 100 79 66 40 28 30 23 15 9 5 5 5 6 6
9 9 9 9 9 10 18 29 38 26 26 52 88 75 100 100 100 100 100 100 100 100 100 100 100 100 100 100 94 92 100 99 64 50 40 38 35 24 17 11 6 5 6 6 6
9 8 9 9 10 12 20 28 27 25 22 32 60 69 87 100 100 100 100 100 100 100 96 100 100 100 100 98 91 100 100 78 58 51 40 43 36 24 18 12 8 4 6 7 7
8 8 10 10 11 22 32 29 25 32 26 26 45 71 90 100 100 100 100 100 100 100 100 100 100 100 100 96 94 100 75 75 67 52 56 51 40 23 20 11 8 5 7 7 6
9 8 9 10 14 35 41 36 34 35 30 29 31 46 67 92 100 100 100 100 100 100 100 100 100 96 100 99 99 75 82 84 61 64 79 59 42 23 18 13 8 6 7 7 7
9 8 11 12 26 57 56 32 33 29 25 28 45 60 66 64 68 73 75 84 100 96 88 100 95 85 99 100 94 88 66 76 66 80 62 60 45 24 18 12 8 6 6 8 7
9 9 12 23 43 59 44 32 48 40 40 42 50 55 51 54 62 65 74 73 72 94 100 100 83 95 100 81 97 93 81 80 77 76 71 59 44 30 20 12 8 6 5 8 7
9 10 14 31 55 59 46 57 63 54 41 53 51 56 52 50 60 70 71 80 79 90 93 99 95 97 98 81 99 87 87 83 78 80 73 59 41 38 21 13 8 6 5 8 8
9 11 18 34 68 68 70 62 49 52 61 76 69 55 64 63 63 67 83 94 92 96 95 97 90 86 99 94 99 90 87 89 77 80 68 59 51 39 23 15 9 6 4 7 8
Wind_Speed
57 50 53 62 68 68 67 63 59 54 48 44 43 45 45 41 39 40 35 37 42 44 42 45 49 50 56 60 63 64 65 73 73 71 78 84 90 95 100 106 106 114 117 104 93
58 60 61 64 62 59 66 68 68 62 57 50 44 44 45 45 43 44 44 44 45 45 44 47 49 55 58 59 63 66 73 76 75 77 83 89 93 96 104 108 117 119 116 109 88
60 62 70 65 69 67 61 62 70 69 65 58 52 49 47 49 47 49 48 48 43 45 43 49 54 56 58 61 65 70 72 76 78 81 85 92 94 102 109 113 111 112 100 97 83
62 62 68 77 76 73 72 68 64 73 73 67 61 56 53 50 51 50 49 48 50 49 48 50 53 58 60 64 68 71 75 76 82 85 92 96 99 107 114 118 114 101 98 79 68
63 67 72 72 77 83 79 71 75 67 74 63 68 62 60 59 55 54 50 52 54 52 51 52 59 59 62 66 69 75 74 80 83 89 94 97 103 112 116 118 111 100 86 69 54
59 63 72 72 73 82 84 84 77 72 70 75 63 67 59 61 61 54 56 57 53 51 54 56 56 57 64 67 70 76 77 80 86 88 92 100 107 113 117 116 107 98 82 62 48
66 68 68 77 84 80 86 86 77 77 72 71 71 70 61 57 58 58 55 55 51 53 52 56 55 62 65 67 74 75 79 84 84 88 95 102 105 113 112 113 103 93 72 56 39
69 74 76 74 78 81 81 82 81 76 74 68 70 70 59 59 62 58 51 54 55 56 55 58 63 61 64 70 75 75 78 82 86 91 96 104 106 111 114 105 99 78 64 48 33
75 78 79 80 79 79 79 79 79 79 74 68 68 61 66 67 68 68 62 58 57 59 56 58 65 65 65 69 70 74 81 83 86 95 95 101 107 107 106 99 92 72 55 42 29
86 85 79 82 81 78 80 78 78 80 78 71 68 60 66 75 66 66 62 58 60 57 55 64 63 63 71 68 71 73 79 84 87 93 95 99 105 105 98 92 82 66 44 32 26
94 91 89 81 77 75 75 71 72 71 71 63 67 65 70 70 59 58 56 58 57 57 59 65 63 66 61 65 66 74 77 84 87 88 91 97 102 103 91 86 75 62 40 28 23
98 92 90 84 73 69 68 68 68 66 69 62 66 65 71 63 52 54 54 57 59 64 60 60 65 59 61 62 67 74 77 84 83 84 89 96 101 99 86 80 66 49 37 25 21
98 98 93 83 72 64 61 62 60 58 59 61 64 67 69 62 50 55 57 56 61 58 59 65 59 59 61 63 67 72 72 79 77 83 88 93 101 91 84 75 61 40 29 24 16
102 102 91 79 67 60 56 56 53 53 51 56 58 65 68 62 53 56 52 57 54 59 65 61 58 58 62 64 69 70 74 74 76 81 88 91 96 86 82 70 55 34 25 18 11
104 95 83 70 64 57 54 50 49 49 46 51 54 55 52 58 57 61 51 56 61 63 65 58 59 59 63 65 71 67 68 72 74 80 86 89 87 81 72 62 51 34 23 14 6
108 87 75 65 60 54 50 47 45 47 46 49 53 50 49 50 54 52 56 60 64 63 64 60 60 61 65 68 68 64 65 68 73 77 82 86 79 77 66 55 41 27 18 9 3
94 76 67 59 57 50 48 44 42 46 46 50 54 56 56 57 56 58 61 63 62 61 58 63 60 64 65 66 63 61 62 66 69 76 82 82 77 74 64 53 35 21 12 4 9
79 68 63 56 54 49 47 42 42 45 47 52 54 56 58 62 61 61 65 63 63 60 60 63 63 63 64 64 55 55 60 66 70 74 80 78 75 76 62 50 30 17 6 7 18
71 63 60 56 52 49 46 41 42 43 48 52 54 55 57 61 63 61 63 64 62 62 61 61 63 63 65 53 53 52 57 61 67 73 74 73 75 70 58 45 27 11 0 12 24
64 59 58 57 51 48 44 43 41 44 46 50 53 54 58 58 59 62 60 59 64 61 61 61 63 62 51 48 49 49 56 58 66 71 74 73 73 71 64 44 27 8 6 17 30
60 58 56 55 50 47 43 44 42 41 44 46 52 55 57 59 59 63 63 62 65 63 63 62 59 53 44 42 42 47 52 60 64 67 73 73 72 66 61 41 27 5 11 22 36
58 55 52 52 47 46 44 45 42 39 41 45 49 50 55 58 59 60 60 60 62 61 61 57 48 40 37 39 41 44 53 58 62 64 69 74 71 63 60 38 20 10 16 29 44
53 50 49 49 44 45 44 46 40 40 39 40 44 47 49 50 54 60 62 62 62 56 51 51 40 37 36 38 39 44 50 55 60 62 68 73 71 61 55 43 19 10 21 34 52
49 45 46 45 43 44 46 47 40 41 39 38 39 41 42 44 45 45 46 48 50 51 48 45 38 34 35 33 37 43 48 53 56 59 68 66 73 62 55 35 16 8 24 39 59
47 44 44 43 43 44 47 42 39 39 38 37 39 39 39 42 43 43 43 43 44 44 44 38 31 31 31 33 36 43 46 48 53 59 61 66 68 62 58 39 15 7 24 43 65
47 45 44 43 44 44 43 41 39 38 38 36 37 37 38 39 40 39 41 41 40 37 34 32 29 33 30 33 37 41 44 49 53 56 59 65 63 63 57 41 18 7 25 42 67
45 44 44 43 43 42 42 43 41 39 36 35 35 34 37 38 39 36 33 32 28 28 29 30 32 31 30 33 38 41 43 48 51 53 55 60 59 60 56 44 18 6 21 40 67
Wind_Direction
294 285 292 290 278 277 278 279 279 276 276 278 283 280 284 287 287 291 288 286 289 294 296 296 299 304 307 306 307 308 306 310 313 309 310 311 312 312 313 315 317 316 311 302 303
294 291 291 293 290 286 278 273 274 275 274 275 272 276 276 281 283 286 287 288 288 294 295 295 302 305 304 305 307 308 310 311 311 310 310 313 314 317 317 319 322 319 310 308 308
285 283 291 292 294 285 288 286 270 271 272 270 273 269 273 276 277 280 285 287 287 292 293 294 301 304 306 305 308 310 309 310 309 310 312 315 313 315 320 322 321 316 312 312 308
283 282 283 290 290 291 288 285 281 273 268 271 269 268 270 274 275 278 283 280 285 291 296 299 300 306 305 305 307 309 309 309 310 312 314 315 316 319 322 324 321 314 317 313 306
286 280 282 289 287 286 287 288 288 280 269 261 269 268 272 274 276 279 280 282 286 290 296 297 301 306 305 306 307 309 308 310 313 313 317 318 318 322 322 324 320 318 321 314 305
280 286 279 283 283 282 285 285 288 285 277 263 262 268 267 270 275 277 279 283 286 291 295 297 302 303 307 304 305 309 309 313 313 315 318 320 321 323 324 325 321 326 322 314 309
285 287 283 280 282 282 285 286 286 282 282 274 258 261 269 271 272 277 279 284 286 291 294 295 301 306 305 303 308 310 310 313 315 316 318 321 323 323 326 326 323 326 322 316 312
295 292 287 289 285 279 283 283 283 283 280 276 262 261 266 259 261 268 276 282 285 288 288 293 297 305 300 304 309 309 311 315 315 316 320 323 322 325 327 324 324 327 324 318 312
302 304 297 294 287 281 280 278 281 278 272 270 261 257 255 259 265 274 277 281 285 289 284 293 302 305 302 304 305 310 309 314 318 319 320 322 323 326 328 325 328 328 327 319 317
308 311 305 293 293 283 277 276 275 277 271 264 258 245 251 256 264 267 275 276 284 288 286 295 303 301 302 302 305 309 313 316 317 320 320 322 324 329 331 328 331 330 328 320 320
311 311 308 299 293 283 281 274 270 268 268 258 254 245 247 255 264 271 271 274 281 282 288 295 299 302 305 305 307 310 312 314 317 320 322 323 326 334 331 332 335 333 330 331 326
310 309 308 300 293 285 275 269 270 267 262 257 247 245 246 255 257 268 262 274 275 283 288 292 296 299 306 308 307 311 313 314 318 320 323 323 330 334 333 335 337 333 334 331 320
309 308 308 299 296 287 276 273 271 266 259 255 250 242 244 253 256 254 266 265 279 280 287 291 294 298 300 309 313 314 312 315 316 321 323 326 331 335 335 335 340 338 331 332 325
307 306 305 297 294 287 279 274 270 265 259 255 251 246 247 250 252 252 260 267 273 281 285 288 295 296 296 308 309 315 312 314 317 321 322 328 332 339 339 336 338 340 337 337 331
306 302 300 294 291 286 280 273 267 263 254 250 248 247 247 247 252 260 259 257 265 276 281 284 296 293 293 305 309 311 313 312 320 321 324 329 334 340 341 334 341 342 344 348 343
303 296 294 292 288 285 278 271 267 260 252 247 241 242 247 246 246 247 256 263 272 277 280 281 293 289 295 302 306 309 312 313 318 322 324 330 338 342 343 335 342 337 344 1 125
298 292 289 289 285 283 275 270 263 257 251 246 241 238 243 243 247 256 258 262 272 273 278 280 288 290 294 302 304 306 308 314 319 319 324 333 340 345 344 337 342 338 352 53 148
292 289 286 285 282 280 273 270 260 255 248 243 243 240 242 246 252 258 260 266 269 271 278 279 288 288 297 300 303 307 309 314 317 321 328 334 343 344 343 337 346 339 356 134 156
287 285 283 280 278 275 270 268 257 252 243 242 241 240 244 247 249 254 259 262 261 271 274 279 285 288 293 296 301 305 306 312 315 319 327 337 344 345 345 341 346 335 189 162 161
283 281 278 276 274 269 265 264 256 249 246 242 242 244 242 247 250 252 255 256 263 269 273 279 285 290 290 294 297 303 307 311 314 320 331 337 343 346 351 345 343 323 178 173 160
280 277 275 271 267 264 261 260 257 251 248 245 245 245 242 244 248 251 253 259 264 268 274 280 286 284 289 294 299 304 308 311 316 325 332 336 342 346 351 347 341 289 181 179 164
277 275 272 266 261 258 256 259 258 251 248 246 245 245 244 244 247 251 258 262 266 269 275 278 275 275 290 293 299 305 308 312 318 327 333 335 340 348 352 347 343 278 182 181 170
272 269 263 260 255 253 253 255 252 254 252 251 248 247 248 248 249 253 255 261 265 268 271 270 268 280 288 295 301 306 310 314 322 329 332 334 340 347 354 349 335 254 181 182 176
267 264 257 254 248 248 251 253 255 256 255 251 249 248 249 251 252 252 254 258 262 265 268 271 271 276 289 295 300 305 310 316 322 329 331 334 340 346 352 347 330 241 190 185 180
264 259 251 246 243 244 248 254 257 256 251 248 247 248 251 252 254 255 256 260 264 263 264 262 269 286 288 292 301 307 311 317 322 329 329 333 341 345 349 346 325 263 201 187 184
259 253 246 240 238 242 246 249 251 250 250 251 252 252 254 255 256 260 261 261 263 263 262 254 272 285 284 296 302 306 310 315 322 327 329 335 340 344 349 350 326 295 205 190 186
252 247 240 236 236 240 244 246 248 247 248 250 255 258 257 257 259 262 262 262 263 260 259 263 274 283 283 296 300 303 309 315 321 326 331 334 339 342 349 352 322 284 214 191 190